De Soto, IL

4:55 AM CST on February 25, 2017 (GMT -0600)
Southern Illinois

Weather History for KMDH - October, 2010

Change the Weather History Date:

Tuesday, October 12, 2010

  Actual Average Record
Temperature  
Mean Temperature 67 °F -  
Max Temperature 82 °F 72 °F 90 °F (1961)
Min Temperature 52 °F 44 °F 25 °F (1987)
Cooling Degree Days 2    
Growing Degree Days 17 (Base 50)    
Moisture  
Dew Point 54 °F    
Average Humidity 64    
Maximum Humidity 93    
Minimum Humidity 34    
Precipitation  
Precipitation 0.14 in - - ()
Sea Level Pressure  
Sea Level Pressure 29.89 in    
Wind  
Wind Speed 3 mph (South)    
Max Wind Speed 17 mph    
Max Gust Speed 24 mph    
Visibility 8 miles    
Events Rain , Thunderstorm    
Averages and records for this station are not official NWS values.
T = Trace of Precipitation, MM = Missing Value Source: NWS Daily Summary

Daily Weather History Graph

Daily Weather History Graph

Search for Another Location

Airport or City:

Trip Planner

Search our weather history database for the weather conditions in past years. The results will help you decide how hot, cold, wet, or windy it might be!

Date:

Astronomy

Oct. 12, 2010 Rise Set
Actual Time 7:02 AM CDT 6:23 PM CDT
Civil Twilight 6:36 AM CDT 6:50 PM CDT
Nautical Twilight 6:05 AM CDT 7:20 PM CDT
Astronomical Twilight 5:35 AM CDT 7:50 PM CDT
Moon 12:29 PM CDT (10/12) 10:06 PM CDT (10/12)
Length of Visible Light 12h 13m
Length of Day
11h 21m
Waxing Crescent, 29% of the Moon is Illuminated
Oct 12
Waxing Crescent
Oct 14
First Quarter
Oct 22
Full
Oct 30
Last Quarter
Nov 5
New

Hourly Weather History & Observations

Time (CDT) Temp. Heat Index Dew Point Humidity Pressure Visibility Wind Dir Wind Speed Gust Speed Precip Events Conditions
12:52 AM 59.0 °F - 51.1 °F 75% 29.86 in 10.0 mi Calm Calm - N/A   Scattered Clouds
1:52 AM 57.0 °F - 51.1 °F 81% 29.85 in 10.0 mi Calm Calm - N/A   Partly Cloudy
2:52 AM 55.9 °F - 52.0 °F 87% 29.85 in 9.0 mi SE 3.5 mph - N/A   Partly Cloudy
3:52 AM 54.0 °F - 50.0 °F 86% 29.84 in 8.0 mi Calm Calm - N/A   Partly Cloudy
4:52 AM 54.0 °F - 51.1 °F 90% 29.84 in 6.0 mi Calm Calm - N/A   Partly Cloudy
5:52 AM 53.1 °F - 50.0 °F 89% 29.86 in 7.0 mi Calm Calm - N/A   Partly Cloudy
6:52 AM 52.0 °F - 50.0 °F 93% 29.88 in 5.0 mi WSW 5.8 mph - N/A   Partly Cloudy
7:52 AM 55.9 °F - 53.1 °F 90% 29.89 in 5.0 mi Calm Calm - N/A   Scattered Clouds
8:52 AM 64.0 °F - 55.0 °F 73% 29.89 in 7.0 mi Calm Calm - N/A   Partly Cloudy
9:52 AM 70.0 °F - 54.0 °F 57% 29.90 in 7.0 mi South 3.5 mph - N/A   Clear
10:52 AM 77.0 °F - 53.1 °F 43% 29.90 in 10.0 mi SW 5.8 mph - N/A   Partly Cloudy
11:52 AM 80.1 °F 79.9 °F 53.1 °F 39% 29.89 in 10.0 mi SSW 5.8 mph - N/A   Clear
12:52 PM 81.0 °F - 51.1 °F 35% 29.88 in 10.0 mi Variable 3.5 mph - N/A   Clear
1:52 PM 82.9 °F - 52.0 °F 34% 29.86 in 10.0 mi Variable 3.5 mph - N/A   Clear
2:52 PM 81.0 °F - 52.0 °F 36% 29.86 in 4.0 mi SSW 4.6 mph - N/A   Haze
3:52 PM 81.0 °F 80.4 °F 53.1 °F 38% 29.85 in 5.0 mi South 4.6 mph - N/A   Haze
4:52 PM 80.1 °F 80.1 °F 55.0 °F 42% 29.86 in 10.0 mi South 10.4 mph - N/A   Partly Cloudy
5:15 PM 78.8 °F - 55.4 °F 44% 29.87 in 1.5 mi South 8.1 mph - N/A   Haze
5:24 PM 77.0 °F - 55.4 °F 47% 29.87 in 0.8 mi South 8.1 mph - N/A   Haze
5:27 PM 77.0 °F - 55.4 °F 47% 29.87 in 1.0 mi South 6.9 mph - N/A Thunderstorm Haze
5:29 PM 77.0 °F - 53.6 °F 44% 29.87 in 3.0 mi South 6.9 mph - N/A Thunderstorm Haze
5:52 PM 75.9 °F - 53.1 °F 45% 29.89 in 10.0 mi Variable 4.6 mph 20.7 mph N/A Thunderstorm Thunderstorm
6:52 PM 64.9 °F - 59.0 °F 81% 29.92 in 10.0 mi NNW 11.5 mph - 0.14 in Rain , Thunderstorm Light Thunderstorms and Rain
7:32 PM 64.4 °F - 59.0 °F 83% 29.94 in 10.0 mi NNE 6.9 mph - 0.00 in Thunderstorm Overcast
7:52 PM 66.0 °F - 57.9 °F 75% 29.95 in 10.0 mi ENE 6.9 mph - 0.00 in Thunderstorm Mostly Cloudy
8:14 PM 66.2 °F - 55.4 °F 68% 29.94 in 10.0 mi ESE 11.5 mph - N/A   Mostly Cloudy
8:52 PM 66.0 °F - 55.9 °F 70% 29.94 in 10.0 mi SE 17.3 mph 24.2 mph N/A   Partly Cloudy
9:52 PM 64.9 °F - 55.0 °F 70% 29.94 in 10.0 mi Variable 3.5 mph - N/A   Partly Cloudy
10:52 PM 64.0 °F - 54.0 °F 70% 29.98 in 10.0 mi South 5.8 mph - N/A   Overcast
11:52 PM 61.0 °F - 55.0 °F 81% 29.98 in 10.0 mi West 4.6 mph - N/A   Scattered Clouds